Simultaneous Nadir Overpasses (SNOs) Predictions

Prediction of SNOs between AURA and NPP Satellite Orbit:

Table of predicted SNOs for the next 14.0 days since TLE Epoch: 8/22/2020
Index Date (AURA) Time (AURA) Lat,Lon (AURA) SZA (AURA ) Date (NPP) Time (NPP) Lat,Lon (NPP) SZA (NPP ) Distance(km) Time Diff (sec)
1 08/23/2020 11:25:10 -79.40, 84.83 98.35 08/23/2020 11:24:44 -79.40, 84.88 98.34 0.98 26
2 08/23/2020 12:14:30 79.58,-106.24 81.39 08/23/2020 12:15:22 79.57,-106.36 81.38 2.53 52
3 08/26/2020 02:54:23 73.17, 10.79 89.89 08/26/2020 02:53:10 73.46, 8.99 90.18 66.33 73
4 08/26/2020 03:41:37 -79.45,-158.96 97.55 08/26/2020 03:41:38 -79.44,-158.99 97.54 0.57 1
5 08/28/2020 19:08:42 79.32, 148.46 83.52 08/28/2020 19:07:52 79.33, 148.55 83.54 1.98 50
6 08/28/2020 19:58:05 -79.49, -42.79 96.72 08/28/2020 19:58:33 -79.49, -42.87 96.72 1.76 28
7 08/31/2020 11:25:09 79.40, -95.16 84.32 08/31/2020 11:24:46 79.40, -95.10 84.32 1.16 23
8 08/31/2020 12:14:32 -79.57, 73.63 95.92 08/31/2020 12:15:27 -79.56, 73.51 95.94 2.55 55
9 09/03/2020 02:52:19 -79.14,-148.60 94.41 09/03/2020 02:51:06 -79.13,-148.70 94.33 2.24 73
